Theta_e
316 318 316 315 317 318 320 324 326 328 329 331 332 331 334 338 332 330 342 347 344 344 344 343 345 344 343 344 345 344 344 344 344 345 346 348 349 349 349 349 350 351 351 351 351 350 349 348 347 346 346 346 346 345 345 346 346 346 345 344 344 344 344 344 345 345 345 346 346 346 347 347 347 346 343 339 337 335 334 334 333 333 333 333 333 333 332
317 318 317 316 317 318 319 322 325 328 331 332 335 335 336 339 338 337 343 346 345 344 342 342 344 344 344 344 344 344 343 343 343 344 346 346 346 348 348 348 350 350 350 351 351 350 351 350 350 350 349 349 349 348 347 347 347 346 345 345 346 346 345 344 345 345 345 346 346 347 346 347 348 349 349 347 345 342 339 336 334 334 333 334 334 334 333
318 317 319 317 316 318 319 320 321 324 330 335 338 337 338 340 341 341 343 346 346 343 342 343 343 343 343 343 343 343 342 342 343 343 345 344 343 344 346 347 348 349 349 350 350 350 350 350 351 351 350 350 350 350 350 350 350 348 346 347 350 349 348 346 346 346 346 346 346 347 349 348 347 348 350 351 351 349 346 343 340 337 335 335 337 336 335
318 317 318 318 317 318 319 320 322 321 324 332 336 337 338 339 342 343 342 343 344 342 342 343 342 342 343 342 342 342 342 342 343 343 343 342 341 342 344 345 347 348 348 348 348 349 349 349 350 350 350 350 350 350 351 351 350 349 348 349 350 350 350 349 349 349 349 349 348 348 350 351 350 349 350 352 352 352 350 349 348 346 343 340 340 340 340
317 317 319 321 320 318 318 320 321 320 322 328 333 336 338 339 342 343 341 341 343 342 341 341 341 342 342 341 341 342 342 343 342 342 342 340 340 341 342 343 344 346 347 346 346 346 347 348 349 349 349 349 349 349 348 348 348 348 349 349 349 349 350 350 351 350 351 351 350 350 351 351 352 352 352 353 353 353 352 351 351 351 350 347 346 346 347
317 320 322 322 320 317 318 318 319 319 320 323 329 335 338 338 337 337 338 340 341 340 340 340 341 341 341 341 341 341 342 342 341 341 340 339 339 340 341 341 342 344 344 344 344 344 345 346 346 346 347 347 347 346 345 345 345 345 347 348 348 348 348 349 349 350 350 350 350 350 351 351 352 353 353 353 353 353 353 352 351 351 351 351 351 351 352
318 320 322 321 318 317 317 317 318 321 321 323 330 336 336 334 334 335 338 340 340 340 340 341 341 341 341 340 340 341 341 340 340 340 340 339 339 339 340 340 340 341 341 340 341 342 342 342 342 342 343 343 343 342 342 343 343 342 343 345 345 345 345 346 347 348 348 349 349 349 350 350 351 351 352 352 352 352 352 352 351 351 351 352 352 353 353
320 319 318 319 319 318 318 317 318 321 321 323 329 335 335 331 332 336 339 340 340 341 340 340 340 340 339 337 337 339 339 339 340 340 340 340 339 339 339 337 337 337 336 335 335 336 335 333 334 336 338 338 338 338 339 340 340 340 341 341 342 342 342 342 343 343 343 344 345 347 348 349 350 350 350 350 350 350 351 350 351 351 351 351 351 351 352
323 320 317 319 320 318 318 319 318 318 319 319 322 330 335 331 331 337 339 338 339 340 339 340 339 338 338 336 335 336 336 337 338 338 339 340 339 339 339 337 334 332 330 329 328 328 326 324 324 327 330 332 334 337 338 339 339 339 339 339 339 338 338 338 338 338 339 339 340 342 343 344 345 346 346 347 348 348 348 348 348 349 350 350 351 351 351
324 322 318 318 317 316 318 320 318 318 319 318 318 326 333 332 332 338 340 338 339 340 339 339 338 337 338 336 334 333 334 335 337 337 339 339 339 339 338 334 331 328 325 325 323 322 321 320 319 320 321 322 325 329 332 333 333 333 333 333 334 334 333 333 333 333 335 336 337 338 339 340 341 341 341 343 345 345 344 344 345 346 347 348 349 350 350
322 322 320 318 317 318 321 321 320 320 319 317 319 325 330 331 333 338 340 339 339 339 338 338 337 338 338 336 334 332 331 334 336 337 338 339 338 337 334 330 328 327 326 325 324 323 322 322 321 320 320 319 319 320 321 322 323 323 325 327 329 329 329 330 331 333 335 336 336 336 337 337 338 339 339 340 340 340 339 340 340 340 342 344 347 349 349
321 321 320 319 320 321 322 321 322 322 318 319 323 325 327 329 332 337 340 339 339 338 337 337 338 338 338 336 333 331 331 333 335 334 335 335 334 333 331 329 328 328 327 326 325 323 321 320 320 318 317 316 315 315 316 316 316 317 320 322 323 324 324 325 327 331 334 336 335 335 336 336 336 337 337 337 337 337 337 337 337 337 338 341 343 344 344
319 319 319 319 320 321 321 321 322 320 319 323 326 325 323 324 329 335 339 339 338 337 336 337 337 336 336 335 333 332 333 333 333 332 333 333 332 331 331 330 329 328 327 324 321 318 317 315 315 314 313 312 310 311 311 312 312 312 314 316 318 320 320 321 321 323 325 328 330 331 333 335 335 335 336 336 336 336 336 336 337 337 336 336 337 336 336
316 317 318 318 319 320 320 321 320 319 320 322 324 323 321 320 325 333 338 337 337 337 336 336 334 333 334 334 332 332 332 331 330 331 331 332 332 331 331 330 329 327 325 320 316 315 315 314 314 313 312 310 309 309 309 309 309 309 310 312 313 315 316 317 318 318 318 320 321 323 326 330 333 335 336 337 337 337 337 337 337 336 334 333 332 332 331
315 316 317 317 318 320 320 321 321 321 323 322 320 320 320 321 325 332 336 336 336 335 334 333 332 332 333 333 332 332 332 330 329 329 330 329 328 328 329 329 328 327 324 320 317 316 315 315 314 312 310 309 309 309 308 308 308 308 309 310 310 311 312 312 313 315 316 317 317 318 320 324 329 332 334 335 335 335 336 336 335 334 333 332 332 333 332
315 316 317 318 320 320 319 320 321 321 320 318 317 318 320 323 327 331 333 335 334 333 333 332 331 332 332 332 332 331 330 329 328 328 327 326 325 326 326 327 328 327 324 320 318 316 315 314 312 311 310 309 309 309 309 308 308 308 309 309 309 309 310 310 311 311 312 313 314 315 315 317 320 325 328 331 332 332 332 332 332 331 331 331 331 332 332
317 319 319 320 321 320 319 319 319 317 316 316 317 318 319 323 328 330 332 333 333 332 332 331 330 331 332 333 333 331 329 329 328 327 326 324 323 324 325 326 327 326 322 318 315 314 312 311 310 310 309 309 309 308 308 308 308 307 307 307 307 307 308 308 308 309 310 310 311 312 313 314 314 316 319 322 324 326 327 327 327 327 327 327 327 327 326
319 320 320 320 321 320 320 319 317 315 315 316 317 318 319 323 327 329 330 331 332 331 331 329 328 329 330 332 333 331 330 329 327 325 324 323 322 322 323 324 324 322 318 315 313 312 310 309 309 309 308 308 308 307 307 307 307 307 307 307 307 307 307 307 306 307 308 309 309 311 312 312 312 312 313 315 317 318 319 320 320 321 322 322 322 322 320
319 321 322 321 321 320 320 319 317 315 314 315 316 318 320 323 326 328 328 329 329 329 329 327 326 326 327 327 328 328 328 328 326 324 322 322 322 321 321 321 320 318 316 314 312 311 310 309 308 307 306 306 306 306 306 306 306 306 306 306 306 306 306 306 306 306 306 307 308 310 312 313 314 313 312 313 314 314 315 315 315 316 316 316 316 316 316
320 321 321 320 319 319 319 319 318 316 315 315 316 317 319 322 325 327 327 326 326 327 327 326 324 323 323 323 323 324 325 325 325 324 322 322 322 320 319 319 318 317 316 314 312 311 310 309 308 307 306 306 306 306 306 306 306 306 305 305 305 306 306 306 306 306 306 306 307 310 313 316 319 319 318 318 317 316 315 316 315 315 315 314 314 314 314
320 321 321 321 321 321 319 318 318 317 316 316 316 316 318 320 323 325 325 325 324 324 325 325 324 323 323 323 322 322 323 323 323 323 322 321 320 320 319 318 317 316 315 313 312 311 310 309 309 308 307 306 306 306 306 305 305 306 305 305 306 306 306 307 306 306 306 306 307 312 317 320 321 321 322 321 321 319 317 317 316 316 316 316 316 315 315
321 322 322 322 322 322 321 319 318 318 317 317 316 316 316 317 319 322 323 323 323 324 325 326 325 325 325 325 323 322 322 323 322 322 321 320 319 319 318 316 316 315 314 313 312 311 310 310 309 308 307 307 306 306 306 306 306 306 306 306 306 306 306 307 307 307 308 308 308 313 319 322 321 321 321 321 321 321 320 319 318 317 318 318 318 318 317
322 321 320 320 321 322 320 319 318 318 318 318 317 317 316 316 316 317 319 320 321 323 324 325 325 325 325 325 324 323 322 322 321 321 320 319 319 318 317 316 316 315 314 313 312 311 310 309 309 309 309 308 308 307 306 306 306 306 306 307 307 308 309 309 308 308 309 310 309 312 317 320 321 321 321 321 321 320 320 319 319 318 318 318 319 319 319
322 320 319 319 320 321 320 319 319 318 318 318 318 318 317 317 316 316 316 317 318 319 320 322 323 324 325 324 324 323 323 322 322 321 320 319 318 319 319 318 316 314 313 312 312 311 310 310 310 311 311 310 309 309 308 307 306 305 306 307 308 310 311 310 308 309 312 313 312 314 317 318 318 319 319 320 320 320 319 319 319 318 318 317 318 318 319
321 320 320 319 319 319 319 319 318 318 318 318 318 318 318 318 317 317 316 316 316 317 317 318 319 321 322 323 323 322 322 322 322 321 320 318 318 319 319 318 316 314 313 312 312 311 311 311 312 312 312 312 311 310 310 309 308 306 305 305 307 308 309 309 308 309 312 314 315 316 317 318 317 317 318 318 319 318 318 317 317 317 317 317 317 318 318
320 319 319 319 319 319 319 319 319 319 318 318 318 318 318 318 318 318 317 317 316 316 316 316 317 318 319 320 322 322 321 321 321 320 319 318 318 319 318 317 315 314 313 313 312 312 312 312 313 313 312 312 312 312 311 311 310 309 307 306 306 307 307 307 308 308 311 314 316 317 317 317 318 317 317 317 318 318 318 317 317 317 317 317 318 318 318
319 318 318 319 320 319 318 319 319 319 318 318 318 318 318 318 318 318 318 318 317 317 316 316 316 316 317 318 319 320 320 319 319 319 318 318 318 318 317 316 315 314 314 313 312 312 313 313 313 313 313 312 312 312 312 311 311 310 308 307 308 308 307 307 308 309 310 313 315 317 317 317 317 317 317 317 317 317 317 317 318 318 318 318 318 318 318
318 318 317 318 320 319 318 318 318 318 318 318 318 318 318 317 317 317 317 318 317 317 317 317 316 316 316 317 317 317 318 318 318 318 317 317 317 317 316 316 315 315 314 313 313 313 313 313 313 313 313 313 313 312 312 312 312 311 309 307 307 307 307 306 308 309 310 312 314 315 316 316 316 317 317 316 316 317 316 316 316 317 317 317 317 317 317
318 317 317 318 318 317 317 317 317 317 317 317 317 317 317 317 317 317 317 317 317 317 317 317 317 317 316 316 316 316 316 316 317 317 317 317 317 317 316 316 315 315 314 314 313 313 313 313 313 313 313 313 312 312 312 312 312 311 311 308 306 306 305 305 306 308 309 311 312 312 312 314 314 314 315 315 315 315 316 315 315 315 316 316 316 316 316
317 317 317 316 316 316 316 316 315 316 315 315 316 316 317 317 317 317 317 317 316 316 316 316 317 317 317 317 317 316 316 316 316 316 317 317 317 317 316 316 315 315 315 314 313 314 314 313 313 313 313 313 312 312 312 312 312 311 311 310 308 306 305 304 305 305 306 308 310 309 310 311 312 312 313 313 313 314 314 314 314 314 314 315 314 314 315
316 315 315 315 315 314 314 314 314 314 314 314 314 315 315 316 316 316 316 316 315 315 315 315 315 316 316 317 317 317 316 316 316 316 316 316 316 316 316 316 315 315 315 315 314 314 314 313 313 313 312 312 312 312 312 312 312 312 311 310 309 307 305 304 304 303 304 306 308 308 309 309 309 309 310 311 311 312 313 313 313 313 313 313 313 313 313
315 314 314 314 313 313 313 313 313 313 313 313 313 313 314 314 315 314 315 314 314 314 314 314 314 314 315 315 316 316 317 317 316 316 316 316 316 316 316 316 315 315 315 315 314 314 313 313 313 313 312 312 312 311 311 311 311 311 311 310 309 307 305 304 304 304 304 306 307 307 307 306 305 305 306 307 308 310 311 311 311 312 312 312 312 311 311
313 313 312 311 310 309 309 310 310 310 311 311 311 312 312 312 313 313 313 313 313 313 313 314 314 313 313 313 314 314 315 316 316 316 316 316 315 315 315 315 315 315 315 315 314 314 313 313 313 313 312 312 311 311 311 311 311 311 311 310 309 307 305 304 304 303 304 305 306 305 305 304 303 304 305 306 308 309 309 310 310 310 310 310 310 310 309
310 309 308 308 307 307 307 307 307 308 308 308 309 310 311 311 312 312 312 312 312 312 312 313 313 313 313 313 313 313 313 313 314 315 316 316 316 316 315 315 315 315 315 315 314 313 313 313 313 313 312 311 311 311 311 311 311 311 310 310 308 306 304 304 304 303 303 303 304 304 304 304 304 305 307 308 308 308 308 308 308 308 308 308 308 308 308
307 306 306 306 306 307 307 307 306 306 306 307 307 308 310 311 311 311 311 311 311 311 311 311 312 312 312 312 312 312 312 312 312 312 313 314 315 316 316 315 314 314 314 315 314 314 313 313 313 312 311 310 310 310 310 310 310 310 310 308 307 305 303 302 302 302 301 301 302 303 304 305 305 306 307 307 307 307 306 306 306 306 307 307 307 307 307
306 306 306 306 306 307 307 307 307 307 307 307 307 307 308 309 309 310 310 310 310 310 310 310 310 310 311 311 311 311 312 312 311 311 311 311 313 315 316 315 314 313 313 314 314 314 313 313 312 311 310 310 309 310 310 310 310 309 309 308 306 304 302 301 300 301 301 301 302 303 304 305 305 306 306 306 306 305 305 305 305 305 305 305 305 305 305
307 307 306 306 306 306 306 306 306 307 307 307 307 307 307 307 308 308 308 308 309 309 309 309 309 309 309 309 310 310 310 310 311 311 311 311 312 314 315 315 314 313 313 313 313 313 313 312 312 311 310 309 309 310 310 310 309 309 308 307 304 302 301 301 301 302 303 303 304 304 304 304 304 304 304 304 304 303 303 304 304 304 303 303 303 303 303
306 306 306 305 306 306 306 306 306 306 306 306 306 306 307 307 307 308 308 308 308 308 308 308 308 308 308 308 308 308 309 309 309 310 310 310 311 313 315 314 314 313 313 313 313 313 313 312 311 311 310 310 309 309 309 309 309 308 306 304 302 301 301 302 302 303 303 303 303 303 303 302 302 302 302 302 302 301 301 302 302 302 302 302 302 302 302
305 305 305 306 306 306 306 306 306 306 306 306 306 306 306 306 306 307 307 308 308 308 308 308 308 308 307 307 307 307 307 308 308 309 310 310 310 312 314 314 314 313 313 313 313 312 312 312 311 311 310 309 309 309 308 307 307 306 303 301 300 300 301 302 302 302 302 302 301 301 301 301 301 300 300 300 300 300 300 300 300 300 300 300 300 300 300
305 305 306 306 306 306 306 306 306 307 307 307 307 307 307 307 307 307 307 307 307 307 307 307 307 307 307 307 307 307 307 307 307 308 309 309 311 313 314 314 313 313 312 312 312 312 312 311 310 310 309 309 308 308 307 305 304 302 301 300 299 300 301 301 301 301 300 300 299 299 299 299 299 299 299 299 299 299 298 298 298 298 298 298 298 298 298
305 306 306 306 306 307 307 307 307 307 307 307 307 307 307 307 307 307 307 307 307 307 307 307 307 306 307 306 306 306 306 307 308 308 308 308 310 312 313 313 313 312 312 312 311 311 311 310 309 309 308 308 306 305 303 302 301 300 299 299 298 299 300 300 300 299 299 298 297 297 297 297 297 298 298 298 298 297 297 296 296 297 297 297 297 297 297
306 306 307 307 307 307 306 306 306 306 307 307 307 307 307 307 307 307 307 307 307 307 307 307 307 307 307 306 306 307 307 308 309 309 308 308 310 312 313 313 312 312 311 311 310 310 309 308 308 307 306 305 303 302 300 300 299 298 298 298 297 297 298 298 298 298 297 296 296 296 296 297 297 297 297 297 296 296 296 295 296 296 296 296 296 296 296
306 307 307 307 307 306 306 305 305 305 305 305 306 306 306 307 307 307 307 307 308 308 308 308 307 307 307 307 307 307 308 308 308 308 308 309 310 311 312 312 312 311 311 310 309 308 308 307 307 305 303 302 300 299 299 298 297 297 297 297 297 296 296 296 296 296 296 295 295 296 296 296 296 296 296 296 296 295 295 295 295 295 295 295 295 295 295
306 307 307 307 307 306 306 306 305 305 305 305 305 305 306 306 306 306 306 306 306 307 308 308 308 307 307 307 307 307 307 307 307 307 307 307 309 311 311 311 311 310 310 309 308 307 306 305 304 302 300 299 298 298 297 297 296 296 296 296 297 296 296 296 296 296 296 296 295 296 296 296 296 296 296 295 295 295 295 295 295 295 294 294 294 294 294
306 306 306 306 306 306 306 306 305 305 305 304 304 305 305 305 305 305 306 306 306 306 307 308 308 308 307 307 307 307 307 307 307 307 307 307 308 310 310 310 309 309 308 307 306 304 303 302 301 299 298 298 297 297 297 297 297 297 297 297 297 297 296 296 296 296 296 296 296 296 296 295 295 295 295 295 295 295 295 294 294 294 294 294 294 294 294
306 306 306 306 306 306 307 306 306 305 305 305 304 305 305 306 305 306 306 306 306 306 307 307 308 308 307 307 307 307 307 307 307 307 308 308 309 309 309 309 308 308 307 305 304 302 300 299 299 298 297 297 297 297 297 297 298 298 298 298 298 297 297 297 296 296 296 296 296 296 296 295 295 295 295 295 295 295 294 294 294 294 294 294 294 294 294
306 306 306 306 306 306 307 307 306 306 306 306 306 306 306 306 306 305 306 307 307 306 306 307 307 307 307 307 307 307 308 307 307 307 308 309 309 308 308 307 306 305 304 303 302 301 299 299 298 298 298 298 298 298 298 298 298 298 298 298 298 298 298 297 297 297 296 296 296 296 296 296 296 296 295 295 295 295 294 294 295 295 295 294 294 294 294
306 306 306 306 306 306 306 307 307 307 307 307 307 306 306 306 305 305 306 307 307 307 306 307 307 307 307 307 307 307 308 308 308 307 307 307 308 307 306 304 303 302 301 301 300 299 299 298 298 298 298 299 299 299 298 298 298 298 298 298 298 298 298 298 298 298 297 297 296 296 296 296 296 296 296 296 296 295 295 294 294 295 295 294 294 294 294
305 305 305 306 306 305 305 306 307 307 306 306 306 306 305 305 306 306 306 307 307 307 307 307 307 307 307 307 307 308 308 308 307 306 305 305 305 304 303 302 302 301 300 299 299 299 299 299 299 299 299 299 299 299 299 298 298 298 298 298 298 298 298 298 298 299 298 298 298 297 296 296 296 296 296 296 296 296 295 294 294 294 294 294 294 294 294
305 305 305 306 305 305 305 306 307 306 305 305 305 306 306 306 306 306 307 307 307 307 307 307 307 306 306 306 306 307 307 306 305 304 303 303 302 302 301 301 302 301 300 299 299 299 299 299 299 299 299 299 299 299 299 299 298 298 299 298 298 298 297 297 298 298 298 298 298 298 298 297 296 296 296 296 296 296 295 295 294 294 294 295 295 295 295
305 305 305 305 306 305 305 306 307 306 305 305 305 306 307 307 307 306 306 306 306 306 306 306 305 305 305 305 305 305 305 304 303 303 303 302 302 301 301 301 301 301 299 299 299 299 299 299 300 300 300 300 300 300 299 299 299 299 299 299 299 298 297 297 297 297 297 298 298 298 298 298 297 297 296 296 296 296 296 296 296 295 295 295 295 295 295
305 305 305 305 306 306 305 306 306 306 305 305 305 306 306 306 306 307 306 306 306 305 305 305 304 304 304 304 304 304 304 303 303 303 302 302 302 301 301 301 301 300 299 299 300 300 300 300 300 300 300 300 301 301 300 300 299 299 299 299 299 299 298 298 297 297 297 297 297 297 298 298 298 297 297 297 297 297 297 297 297 297 297 297 296 296 296
Wind_Speed
3 4 4 3 3 3 4 5 4 2 1 2 3 2 3 6 4 3 7 12 10 10 14 15 13 12 11 12 13 13 13 12 12 12 13 14 15 16 16 17 17 18 21 24 23 22 20 20 21 20 21 22 22 22 23 23 23 24 25 25 26 26 25 23 23 22 22 21 20 19 18 17 17 17 18 19 20 20 20 21 21 20 19 19 18 18 18
4 6 6 6 5 5 7 9 9 7 3 2 2 2 3 3 2 1 9 13 8 7 13 15 15 16 15 14 14 13 14 14 13 13 13 12 12 14 16 17 17 18 20 22 23 23 21 20 19 20 20 20 20 21 22 22 21 21 22 22 22 24 25 26 25 24 22 21 19 19 20 20 19 18 18 18 19 19 20 21 21 21 20 20 20 20 19
4 8 7 6 4 4 8 11 11 10 6 3 3 3 3 3 3 3 8 10 5 6 14 17 17 17 17 15 15 14 14 15 14 14 14 12 11 12 14 16 16 17 19 20 20 21 21 19 19 21 21 19 19 19 19 18 18 20 22 22 20 21 23 26 26 25 23 22 21 20 20 21 21 21 20 19 18 18 19 20 21 21 21 21 20 20 20
3 7 7 5 2 1 5 11 13 12 6 1 1 1 0 1 5 9 8 6 4 8 16 17 16 17 17 16 15 15 15 15 15 15 14 12 11 12 13 15 17 18 18 19 19 20 20 19 19 19 19 16 16 16 15 15 15 18 21 23 22 22 23 25 26 25 23 22 23 23 21 21 22 23 22 20 19 19 19 20 20 21 22 22 21 20 20
2 5 6 4 1 3 1 8 11 10 6 3 2 1 1 3 7 8 4 2 3 10 16 16 16 17 17 16 16 16 16 16 16 15 14 12 12 13 13 13 18 20 19 19 19 19 20 19 17 15 14 14 14 13 11 9 9 12 15 17 18 18 20 22 22 23 22 23 24 25 24 23 23 23 23 21 20 20 20 21 22 22 23 22 21 20 19
1 3 3 2 1 1 2 5 7 6 5 5 4 2 2 3 3 0 1 2 8 13 16 16 16 15 15 15 15 14 15 17 16 15 15 15 16 17 16 17 22 23 21 20 20 21 20 19 18 17 16 15 13 10 10 11 12 13 15 14 12 10 11 12 14 15 17 20 21 22 22 22 21 22 22 21 21 21 21 22 23 24 24 23 22 20 20
0 2 1 2 0 2 1 2 5 3 2 3 3 1 3 2 1 2 1 6 11 15 18 18 18 16 15 13 12 11 14 16 17 18 17 17 20 23 23 23 25 25 24 23 23 22 21 20 20 21 19 18 16 14 13 13 14 15 16 14 12 11 10 10 10 10 11 13 14 13 13 13 14 16 17 18 18 19 19 20 21 22 22 22 22 22 22
1 2 1 3 1 2 1 1 5 5 2 4 3 1 2 2 3 1 4 7 12 17 20 20 19 18 15 13 10 10 13 15 16 19 21 20 21 26 26 24 23 22 22 23 23 21 20 19 20 21 20 19 18 17 15 15 17 17 17 16 15 13 12 11 11 10 8 7 7 7 7 7 8 9 9 10 11 12 13 13 13 13 14 16 18 21 22
0 2 2 1 1 1 2 2 4 4 3 5 4 2 1 1 2 3 7 10 14 19 21 21 21 20 16 12 8 8 12 15 16 19 23 24 25 25 23 20 20 20 20 21 21 21 21 22 21 21 19 18 18 18 16 16 17 18 17 17 16 14 13 12 11 10 9 8 7 5 5 5 5 6 6 6 6 6 7 6 6 6 7 10 14 16 17
1 1 2 2 3 3 1 2 1 2 3 5 4 3 1 1 2 7 11 13 16 20 21 22 23 20 13 8 6 8 12 16 19 21 24 26 25 23 22 22 22 22 21 21 21 21 22 22 21 19 18 17 17 17 16 15 15 16 17 17 15 14 13 12 11 10 9 9 9 8 8 8 7 5 4 4 5 5 5 4 4 3 2 5 8 11 13
0 2 2 2 3 2 3 5 5 6 5 2 3 3 0 3 1 9 15 16 18 21 22 24 24 17 10 7 8 11 14 18 22 23 24 24 22 21 22 23 24 23 22 21 20 20 21 21 19 17 14 13 14 15 14 13 13 14 15 15 15 14 13 12 11 10 9 9 10 9 9 10 10 8 7 7 6 5 3 2 1 1 2 4 7 9 11
1 2 2 1 1 3 4 8 13 13 4 3 2 2 2 5 3 8 15 18 20 21 23 25 20 10 7 11 15 17 19 22 23 23 23 23 22 21 21 21 21 21 20 20 18 18 18 18 17 14 12 10 11 12 12 10 10 12 13 13 13 13 12 11 11 10 9 9 9 9 9 9 9 8 7 8 8 7 6 5 4 2 2 5 7 7 8
1 1 2 1 2 2 5 12 17 13 3 3 1 2 3 7 7 7 13 18 20 21 22 22 13 5 9 21 26 26 25 25 23 22 23 23 22 22 21 20 19 19 18 17 17 16 16 16 14 12 10 9 9 9 8 7 8 9 10 10 10 10 10 9 9 8 8 8 8 8 8 8 8 7 6 6 6 5 5 5 5 4 3 2 2 2 1
1 0 1 0 2 3 9 17 14 7 2 2 1 7 11 11 8 7 11 16 18 17 17 15 11 12 20 28 31 30 29 27 24 23 23 23 22 21 20 18 18 17 16 15 15 15 14 13 11 9 7 6 6 7 6 5 6 6 7 7 7 7 7 7 7 6 6 6 6 6 7 6 6 6 6 4 3 4 4 4 4 4 4 3 1 1 2
0 1 1 1 2 4 14 16 8 5 4 3 7 12 13 10 6 7 9 13 17 18 19 16 15 20 27 31 31 31 30 28 26 25 23 22 21 20 19 18 16 15 15 14 13 13 12 10 8 6 5 4 4 4 4 3 4 4 4 4 4 4 4 5 5 6 6 5 5 5 5 6 6 6 6 6 5 5 5 5 4 3 3 2 0 2 3
1 1 2 3 1 6 13 10 4 4 6 8 11 12 9 7 5 7 10 14 19 22 23 23 23 26 31 33 34 34 32 29 28 27 24 21 20 20 19 18 16 14 12 12 11 10 9 7 6 4 3 2 2 1 2 2 2 3 3 3 3 3 3 3 3 3 4 4 5 6 6 6 6 6 7 6 6 6 6 6 5 5 4 3 3 4 5
1 2 2 3 3 6 9 7 6 8 9 9 11 9 7 6 5 8 12 16 22 23 24 25 27 31 36 37 35 34 32 30 29 28 24 21 21 20 19 18 17 14 11 8 8 7 7 6 5 4 3 2 1 1 1 1 2 2 3 3 3 3 3 3 4 4 3 3 4 4 6 6 7 7 8 7 7 7 7 7 7 7 7 6 6 6 6
1 2 3 2 3 7 11 11 12 13 13 12 11 8 4 3 5 8 12 18 21 23 24 25 26 31 36 38 38 36 34 33 32 30 28 25 24 23 21 19 17 14 10 8 6 5 4 4 3 3 2 2 2 2 2 2 2 3 3 4 4 4 4 4 4 4 4 4 4 4 4 5 6 6 7 7 7 7 7 7 7 7 8 8 8 8 8
1 1 3 3 5 10 14 15 16 17 16 14 12 8 4 0 3 7 11 16 19 21 22 21 21 24 26 28 33 37 38 37 34 31 30 29 27 24 22 20 17 13 10 7 5 3 2 2 2 2 2 2 2 2 2 2 2 3 4 4 5 5 5 5 5 4 4 5 5 5 4 4 4 5 5 5 6 6 6 6 6 6 7 7 7 7 8
0 1 2 2 5 11 16 18 18 18 17 16 14 11 6 3 2 4 9 14 17 20 20 18 18 19 18 19 25 29 31 36 36 33 31 31 29 26 23 19 15 11 8 5 3 3 4 3 3 2 2 2 2 1 1 1 1 2 3 4 4 5 5 5 4 4 4 4 4 4 4 3 2 2 2 2 3 4 4 4 5 5 5 5 5 5 6
2 3 2 2 1 6 14 19 19 18 16 15 14 12 9 6 5 6 10 14 14 14 14 15 17 17 13 14 18 20 20 25 28 27 27 28 27 25 21 17 13 9 6 4 4 5 5 4 3 2 2 1 1 1 1 1 1 1 1 2 3 4 4 4 4 3 3 4 4 4 3 3 3 3 2 1 1 2 3 3 3 4 4 4 4 3 4
2 2 2 1 1 2 8 14 16 16 15 14 13 14 14 11 8 5 7 11 11 10 9 9 14 19 18 17 20 23 25 26 25 24 25 26 23 20 17 14 11 9 7 6 5 5 5 4 4 4 4 3 3 3 3 3 3 1 0 1 1 2 3 3 3 3 3 4 5 5 4 4 4 5 5 4 3 3 2 3 3 2 2 3 3 3 3
3 3 4 4 5 4 5 8 11 12 13 13 14 15 15 14 12 7 3 5 7 10 10 8 12 19 23 22 23 26 29 30 28 26 26 25 22 19 16 13 11 9 9 7 6 5 5 6 7 7 7 7 7 6 6 5 4 2 2 1 1 1 1 1 1 2 3 3 4 5 6 6 5 5 5 5 5 5 4 4 4 4 3 3 4 4 4
4 4 6 7 6 5 5 8 9 9 9 10 11 11 11 12 12 10 7 4 2 5 9 11 14 19 22 23 25 26 28 28 26 25 26 25 21 17 15 14 13 11 9 7 6 6 7 8 9 8 9 9 9 9 8 7 5 4 3 2 2 2 2 1 1 1 2 3 4 4 5 6 6 6 5 4 5 6 6 6 7 7 7 6 6 5 5
5 5 5 5 4 4 6 7 7 8 9 9 8 8 8 7 7 8 9 8 4 2 4 8 12 16 20 23 25 26 26 26 26 26 27 25 21 16 15 16 16 13 9 7 7 7 7 8 8 8 8 9 9 9 9 9 8 6 5 3 2 1 1 1 1 1 2 2 3 3 4 4 4 5 5 4 4 5 6 7 8 8 9 8 7 7 7
6 4 2 2 2 4 5 5 4 6 8 8 8 8 8 6 5 3 3 6 6 3 1 4 7 11 16 21 25 26 26 27 28 29 28 26 21 18 16 16 16 13 9 8 8 8 7 6 6 6 6 6 7 7 8 9 9 8 7 6 3 2 2 1 0 0 1 2 2 3 3 3 3 3 3 4 4 4 4 4 5 7 8 9 9 8 9
3 3 2 1 1 3 4 4 4 7 8 8 8 9 8 8 7 5 4 3 1 2 1 1 2 5 11 17 22 25 27 29 31 31 29 25 22 19 16 16 15 13 10 9 9 9 8 6 4 3 3 3 4 6 7 8 9 9 9 7 5 4 3 3 1 1 1 2 2 2 2 3 2 2 2 3 3 4 4 4 5 5 7 8 9 9 10
1 2 1 1 0 2 4 5 6 8 9 9 9 10 10 10 9 8 7 6 7 7 6 4 3 3 6 12 18 22 25 27 29 30 28 26 23 21 19 16 15 14 12 11 11 10 9 7 5 4 2 0 2 3 5 7 8 10 10 9 6 4 4 3 2 2 3 3 3 4 5 3 2 2 2 3 3 3 3 4 6 6 6 8 9 11 12
1 0 1 1 2 3 4 5 6 8 8 9 10 10 10 10 10 9 8 7 7 9 10 10 9 8 7 8 12 17 20 23 25 27 27 26 26 25 23 20 18 16 14 14 14 13 11 10 8 6 4 3 2 2 4 6 7 9 9 9 8 7 5 4 4 4 4 3 4 7 9 7 6 5 4 3 4 4 4 5 6 6 6 8 10 10 11
2 1 1 2 2 3 4 4 6 7 8 9 10 10 10 10 10 10 9 8 8 7 8 9 11 12 13 12 12 13 15 17 20 22 24 26 27 28 26 24 23 21 19 18 18 17 15 13 11 9 7 6 5 4 4 5 7 8 9 9 9 8 7 7 6 7 6 4 4 6 7 6 7 7 6 4 5 6 6 6 6 6 7 8 8 8 9
3 2 1 2 2 3 4 5 5 6 7 8 9 9 9 9 9 9 9 8 7 7 6 6 7 9 12 15 16 16 15 16 17 18 20 23 26 28 28 28 27 25 24 23 22 20 17 16 14 12 11 9 7 6 5 6 7 8 9 10 10 10 10 9 8 8 7 5 4 4 4 4 7 9 9 8 7 6 6 6 6 6 7 7 7 8 8
4 2 2 3 4 4 5 5 6 6 7 7 8 8 8 7 7 8 8 8 8 7 7 7 7 7 8 10 13 15 16 17 18 17 17 18 21 23 26 27 28 28 28 27 24 21 19 18 16 15 13 11 10 8 6 6 7 8 9 10 11 11 12 11 9 8 6 4 3 3 4 6 9 11 11 11 9 7 6 7 6 6 6 7 7 7 7
5 4 3 4 5 6 8 9 9 9 9 9 9 10 10 9 9 9 9 8 8 8 8 8 8 8 9 9 10 11 12 15 18 19 19 19 19 19 20 22 24 27 29 29 26 23 21 20 18 16 14 13 11 9 7 7 7 8 10 11 12 12 12 11 10 9 6 4 4 4 5 7 9 8 7 7 5 5 5 6 6 6 7 7 6 7 9
6 5 4 6 8 10 12 13 14 14 14 13 12 12 12 12 12 12 12 11 11 10 9 9 9 9 9 9 9 9 10 11 14 16 18 20 20 22 23 23 22 23 26 28 28 26 23 21 19 17 16 14 11 9 9 8 8 9 10 12 13 13 13 11 10 8 7 6 6 5 4 5 5 4 3 3 4 4 5 5 5 6 6 6 6 7 10
6 5 7 9 11 12 14 15 16 16 17 17 16 15 15 14 14 14 14 14 14 13 13 12 11 11 11 11 11 11 11 11 11 13 14 15 16 19 22 22 22 23 26 29 30 28 25 22 21 19 17 14 12 10 10 10 10 11 11 12 13 14 14 13 11 11 10 10 8 6 4 4 3 2 3 5 6 6 5 4 5 5 6 7 7 8 9
6 8 10 12 14 15 16 18 19 19 20 20 20 20 18 17 17 17 17 16 15 14 14 14 14 14 14 13 13 13 13 12 12 12 13 13 13 15 17 18 20 23 27 30 31 29 26 23 21 19 17 14 12 11 11 11 11 11 12 13 14 14 14 14 13 12 10 8 6 4 3 4 3 3 4 6 6 5 4 3 4 5 5 6 8 8 8
8 11 13 15 17 18 20 21 22 22 23 23 23 23 23 22 21 20 20 20 19 18 17 17 17 16 15 14 14 14 14 14 14 14 14 14 14 15 16 17 19 22 25 29 30 29 26 25 23 21 18 15 13 12 13 13 12 13 14 14 14 14 13 11 9 6 4 3 2 3 4 4 3 3 3 4 4 4 4 4 5 5 5 6 7 8 8
11 13 15 17 18 19 21 21 20 20 21 21 22 22 23 23 23 22 22 22 21 20 19 19 19 19 18 18 17 16 16 15 15 16 15 15 15 16 17 18 19 21 24 27 29 29 28 27 25 22 19 16 13 13 14 14 14 14 14 14 14 12 9 5 3 2 2 2 3 5 6 3 2 3 4 4 4 5 5 5 5 5 6 6 6 6 7
12 13 15 16 18 19 19 19 19 18 18 18 19 19 19 19 21 22 23 22 22 21 21 21 21 20 20 20 20 20 19 18 18 17 17 17 16 16 17 18 18 19 21 24 26 28 29 27 23 20 18 16 13 13 14 14 15 14 14 13 11 8 4 2 2 3 4 4 3 4 5 4 3 4 5 4 5 5 4 4 5 4 4 5 5 5 6
12 13 15 16 17 18 18 17 18 17 17 18 19 19 18 18 18 20 21 22 22 22 23 23 22 22 22 21 21 22 21 20 19 19 18 17 17 16 16 17 17 18 20 22 25 28 27 25 21 19 17 14 13 13 14 14 13 12 11 9 7 4 2 3 2 3 3 3 2 3 3 3 3 4 4 3 3 3 3 3 3 3 3 4 5 5 6
11 13 15 16 16 16 16 16 16 16 16 17 18 18 18 17 18 18 20 21 21 22 23 23 23 22 21 20 20 20 19 18 19 19 18 18 18 16 15 16 17 18 20 23 25 26 24 21 19 17 15 14 13 12 11 10 10 8 6 4 3 2 2 3 3 2 2 1 0 1 1 1 1 2 2 2 2 2 2 2 2 2 3 3 4 5 6
11 13 14 15 15 14 14 14 14 14 14 15 15 15 15 15 16 17 18 19 20 22 23 24 24 23 21 19 19 19 19 18 17 18 18 18 17 16 14 14 16 17 21 24 24 23 21 19 17 15 14 12 10 9 8 7 6 4 2 1 1 2 2 3 2 2 1 2 2 1 1 0 1 0 0 1 1 1 1 1 1 2 2 3 4 5 5
12 12 13 13 12 12 13 13 13 13 14 13 13 13 14 14 16 17 17 18 19 21 22 23 24 24 22 20 19 19 19 17 16 16 16 16 16 14 13 14 16 19 23 25 24 21 19 17 15 13 11 9 7 7 5 4 3 3 3 4 4 4 4 4 4 3 3 4 3 3 2 1 1 1 1 1 1 1 1 1 2 2 3 3 4 5 5
11 11 11 11 11 11 12 13 13 14 14 13 12 12 13 14 16 16 17 18 18 18 20 21 22 22 21 20 19 19 19 18 18 17 17 18 17 15 14 14 18 23 27 25 21 18 16 14 13 11 8 7 7 6 6 5 5 5 6 6 6 6 6 6 5 5 5 5 6 6 6 5 4 2 1 0 1 1 1 2 3 3 4 5 5 5 5
10 10 10 9 10 11 12 13 13 13 13 13 12 12 13 14 16 16 16 17 17 17 17 19 20 21 20 20 20 19 19 19 19 18 18 18 19 17 16 17 22 26 25 20 16 14 13 12 11 9 8 8 8 8 7 7 6 6 6 6 6 6 6 5 6 6 6 6 7 8 9 9 8 6 5 3 2 2 3 4 5 5 5 6 5 5 6
8 8 7 8 8 9 11 12 12 12 13 13 13 12 12 13 14 15 14 14 14 15 15 16 18 18 18 18 18 19 19 19 18 17 16 16 18 18 18 21 23 23 20 16 15 14 12 11 10 10 10 10 9 9 8 7 6 5 5 5 5 5 4 4 4 4 5 6 7 7 8 9 10 9 9 7 5 5 6 7 7 7 7 7 7 7 8
7 6 6 7 8 9 9 10 10 11 11 11 11 10 10 11 12 13 12 12 12 12 13 13 15 16 16 16 16 16 17 18 18 17 16 15 16 16 19 21 19 17 15 14 13 12 11 11 11 11 11 10 10 8 7 6 5 5 4 4 3 3 3 2 2 3 3 4 5 6 7 8 9 9 9 8 5 5 7 8 8 8 9 9 9 9 10
6 7 8 9 10 10 9 8 8 8 8 8 8 8 9 9 10 10 9 8 8 8 9 9 11 13 14 14 15 14 14 16 17 18 17 15 15 16 18 17 15 13 13 12 12 12 12 12 12 11 10 9 9 8 7 6 5 4 3 2 2 2 2 3 3 3 3 4 4 5 6 6 7 8 9 8 6 5 7 8 8 8 9 10 9 9 10
6 7 9 11 13 14 12 8 6 7 7 7 7 8 8 8 7 6 4 4 5 5 6 6 8 10 12 13 13 12 9 9 11 11 14 15 16 16 17 15 13 12 12 14 15 15 14 13 13 12 10 9 9 8 7 6 4 3 2 1 1 3 4 5 6 6 6 6 6 6 6 6 7 7 9 9 9 8 8 8 9 9 10 11 11 11 12
5 7 8 10 13 16 14 9 5 7 9 8 7 8 8 7 5 4 3 1 1 1 2 2 3 5 6 8 8 6 5 5 7 11 15 17 17 16 15 14 13 11 11 13 15 14 14 14 13 12 10 9 8 7 6 5 4 3 2 1 2 3 4 5 6 7 8 8 9 8 8 8 7 8 9 10 10 9 8 9 10 10 11 12 13 14 16
4 6 7 9 11 14 13 9 5 6 8 8 8 8 8 7 6 6 6 5 5 8 10 11 10 11 11 11 11 12 13 14 16 17 18 18 17 15 13 12 12 11 12 13 14 14 14 14 12 10 9 8 7 6 5 5 4 2 2 2 3 4 5 5 6 7 7 8 9 10 11 10 10 10 11 12 11 9 9 10 11 12 13 14 15 16 17
3 5 6 7 8 11 11 8 5 5 8 9 9 9 9 8 8 9 9 9 11 13 15 16 16 16 15 15 15 16 16 17 18 18 17 17 17 15 12 12 12 13 13 13 13 13 12 12 10 9 7 6 5 5 5 5 4 3 3 4 5 6 6 7 7 8 9 9 10 11 12 12 12 12 13 13 13 12 11 11 11 12 14 16 17 18 19
Wind_Direction
58 20 19 54 92 82 41 31 42 58 8 256 223 208 154 150 192 244 163 171 189 182 178 183 178 167 156 153 156 151 145 144 145 154 163 167 171 176 183 191 194 199 204 205 204 203 202 202 203 204 208 210 212 214 215 215 219 225 230 232 235 240 244 247 249 250 250 249 246 244 243 243 243 243 244 245 247 248 247 246 245 245 245 247 248 248 249
42 33 42 61 79 84 66 49 37 34 25 352 27 83 125 111 6 349 159 172 186 170 172 177 169 162 155 150 151 147 142 143 144 151 159 159 163 172 180 187 192 196 202 204 204 203 200 196 194 196 199 200 202 205 208 211 214 221 231 236 236 237 239 242 244 246 248 249 249 247 244 242 242 243 244 245 247 249 251 251 249 247 245 244 245 245 246
35 21 29 50 66 82 70 52 30 22 28 45 64 97 128 83 56 99 145 160 167 161 169 169 164 160 156 154 157 153 147 146 145 149 154 150 150 161 170 175 180 186 193 195 196 197 195 190 189 196 198 195 195 200 204 209 214 220 229 234 235 231 230 234 238 240 243 245 245 245 244 241 240 241 244 245 245 247 248 250 251 249 246 243 243 245 246
51 5 2 25 40 162 65 37 12 360 357 1 60 75 224 166 133 130 140 169 180 166 169 168 163 163 163 162 164 160 154 151 149 150 149 141 139 145 152 158 162 165 173 177 179 181 182 181 184 192 198 197 198 205 210 214 219 223 225 229 234 235 232 232 234 236 239 240 241 242 243 241 240 241 244 245 245 246 247 248 248 248 247 245 244 246 249
71 354 345 10 359 214 74 20 352 333 326 317 302 288 251 181 151 142 156 220 144 155 169 171 167 169 169 167 167 166 160 155 152 150 144 136 132 134 134 138 148 155 159 159 157 158 163 170 174 177 180 183 189 194 190 185 193 200 204 213 224 230 232 233 234 235 235 236 238 240 241 241 240 241 243 245 246 247 249 249 248 247 247 246 245 246 250
61 355 341 348 350 157 83 11 340 311 300 313 313 305 132 147 155 152 327 115 139 160 172 172 169 169 168 168 167 162 157 153 148 147 148 142 134 134 134 130 133 138 139 134 131 131 134 139 141 140 140 145 149 142 129 127 134 146 158 171 184 193 204 216 222 221 219 221 226 232 236 238 238 240 242 245 246 247 247 247 247 246 245 245 245 247 250
19 23 343 237 200 64 92 12 5 356 293 319 337 80 112 96 350 314 198 156 158 165 167 164 164 164 160 156 152 151 153 154 151 152 155 152 141 137 135 129 125 126 126 123 119 116 114 114 116 116 116 117 116 109 108 114 118 125 134 139 142 147 154 164 173 181 191 200 207 213 220 226 230 233 236 239 240 242 242 243 245 246 246 247 249 250 251
200 131 149 203 171 58 118 102 28 22 358 348 358 112 122 15 327 263 166 158 159 160 160 160 160 156 142 123 120 141 152 153 154 151 150 148 140 134 131 127 124 124 124 120 116 114 113 109 105 104 104 105 106 105 106 110 112 115 118 118 119 124 127 130 134 139 147 165 179 186 194 202 211 215 217 221 227 231 236 240 244 246 247 248 249 248 249
124 124 120 167 188 77 89 57 23 13 343 331 324 286 171 28 272 202 155 153 160 159 157 157 155 149 138 119 114 140 151 151 147 141 140 141 139 136 133 128 124 121 115 112 111 111 108 104 99 99 102 103 103 105 108 111 113 114 113 111 111 113 112 112 111 110 111 116 124 137 153 164 182 197 200 202 204 207 212 214 216 224 234 242 245 244 242
17 132 131 157 178 143 74 337 4 14 310 287 275 261 204 57 233 184 157 155 163 161 157 155 152 147 142 137 138 145 152 154 147 139 139 141 140 137 135 130 126 122 116 113 113 111 108 104 101 101 103 103 104 107 110 114 115 112 110 109 110 109 107 103 98 95 95 96 99 105 112 117 122 135 151 165 174 183 193 197 199 211 247 264 256 243 236
124 209 186 173 163 110 12 322 323 338 324 243 210 234 9 25 278 179 161 161 167 166 161 158 156 156 156 159 160 156 153 153 151 147 144 143 141 137 133 131 129 126 124 123 121 119 116 113 109 108 108 108 108 108 110 115 116 111 109 110 112 111 109 108 107 109 109 107 107 110 110 108 107 107 107 109 113 116 121 126 153 234 248 256 252 237 228
140 219 214 153 99 63 7 323 321 327 334 145 192 251 35 16 305 188 168 166 167 164 164 165 167 174 170 158 159 160 159 157 155 153 149 147 146 142 139 138 135 131 131 131 130 127 122 117 116 116 117 117 114 109 111 118 118 114 114 117 117 115 115 116 118 121 124 124 122 120 114 111 112 111 105 97 93 89 83 81 83 110 199 228 240 238 230
74 222 200 130 83 63 347 323 321 319 289 167 177 322 352 334 294 208 178 175 169 162 166 171 170 155 153 159 162 162 163 162 160 159 157 154 152 149 147 146 143 140 140 138 134 130 123 118 118 117 113 112 110 104 106 112 115 117 121 124 127 127 127 127 125 123 123 125 126 126 122 120 122 122 118 110 103 97 87 85 91 106 127 161 214 237 240
42 97 171 99 127 74 345 327 324 329 292 186 12 335 321 313 290 227 192 180 171 164 165 164 145 134 151 160 162 163 164 164 163 163 163 160 158 156 153 151 150 148 147 142 137 131 125 120 117 113 108 105 99 96 101 105 107 112 118 124 133 140 145 151 153 148 141 132 130 131 131 133 141 143 142 144 142 134 129 127 130 129 120 116 106 35 9
4 116 77 69 137 33 353 338 336 17 8 319 322 322 317 316 292 237 201 181 176 172 165 156 150 156 161 163 164 167 168 166 163 164 166 165 162 161 158 157 159 159 155 152 146 137 132 129 123 117 112 105 97 98 108 113 115 120 125 131 141 151 160 170 175 175 173 168 162 161 158 160 169 170 169 176 182 176 174 177 178 171 155 149 244 316 324
340 43 63 51 2 347 354 355 5 11 347 323 318 317 314 315 283 223 196 189 187 181 170 162 163 168 167 165 169 171 168 165 164 165 167 168 167 167 167 165 167 171 167 162 157 150 143 140 139 135 127 119 110 114 129 141 153 161 168 176 181 188 195 204 211 209 203 193 186 186 189 192 197 200 197 198 198 198 202 207 214 223 232 244 265 281 294
21 14 31 36 2 351 7 26 30 11 1 346 333 324 316 306 256 207 199 196 191 186 179 170 169 174 175 173 175 173 168 168 170 167 166 171 172 172 174 173 174 179 180 174 169 165 159 155 156 158 156 161 207 236 200 207 206 204 219 228 229 230 227 227 235 239 241 238 222 205 201 204 210 216 221 226 229 231 235 239 245 253 259 264 270 276 282
120 45 30 23 13 16 27 43 47 34 25 15 1 349 330 282 225 208 205 199 192 189 183 173 170 177 179 177 177 175 171 172 174 170 169 175 178 176 177 178 179 180 182 182 178 171 166 165 166 170 173 181 205 226 235 246 242 236 246 252 253 257 257 251 247 242 241 248 249 241 233 227 225 227 229 234 241 249 255 260 262 263 266 269 274 277 280
179 78 53 43 32 30 33 44 52 48 37 27 23 24 25 323 218 216 205 194 188 184 181 175 172 176 177 174 173 174 173 173 176 176 175 177 180 181 181 182 182 181 180 180 172 166 175 182 176 176 183 192 209 223 234 246 246 248 253 253 252 254 254 254 253 246 241 242 242 243 246 246 249 253 252 250 254 259 263 268 272 274 272 272 273 275 277
63 92 100 82 43 39 41 45 50 52 48 40 35 34 38 62 130 190 193 184 176 175 178 176 167 164 168 170 169 168 170 172 175 179 178 177 180 182 183 184 184 182 180 179 182 194 198 193 186 182 189 211 230 247 268 268 263 264 257 250 246 241 235 235 237 235 236 236 230 228 227 221 229 251 269 272 270 269 269 269 273 277 279 277 272 270 271
97 103 122 179 146 48 48 50 52 53 51 47 45 44 42 58 99 142 166 168 163 165 175 181 175 167 170 180 178 174 171 172 177 182 183 180 179 179 181 183 182 179 181 193 212 217 207 192 177 159 141 126 104 65 35 22 12 314 271 253 241 225 211 205 201 203 209 210 208 203 191 187 200 209 214 229 258 272 277 278 277 281 284 285 285 283 279
112 70 30 8 158 70 53 54 55 52 46 41 45 48 47 50 63 101 154 164 163 165 173 192 195 190 191 199 199 193 189 189 194 198 193 186 180 176 179 181 180 183 199 215 217 210 192 160 130 115 104 94 91 85 77 78 78 75 301 262 242 222 207 189 174 168 170 181 186 177 161 166 198 219 232 243 256 269 285 292 291 288 281 277 281 286 292
75 65 66 71 82 85 61 44 41 42 39 36 39 45 48 50 51 52 96 166 186 194 195 198 197 193 197 204 207 205 201 200 201 200 195 190 185 183 187 192 191 198 210 209 195 178 155 129 113 106 98 92 89 85 80 82 87 95 107 128 166 179 175 156 135 133 141 155 166 169 167 171 188 210 234 253 264 271 275 277 284 293 295 289 285 282 285
96 96 89 82 80 71 36 17 18 25 31 34 38 41 43 47 50 50 55 72 167 209 208 206 204 204 207 212 213 214 212 207 202 199 197 195 195 197 202 205 207 213 215 198 172 153 138 124 114 104 94 86 83 80 76 72 69 69 77 100 135 145 145 129 103 114 137 142 149 158 164 172 185 198 211 234 259 271 270 266 271 281 287 291 292 287 283
114 115 91 70 59 33 15 18 27 27 22 19 19 20 21 27 39 48 50 52 60 139 200 213 215 215 217 219 219 218 213 206 202 201 200 201 205 211 212 211 213 215 209 184 163 152 142 131 118 105 93 84 79 75 69 61 55 50 48 53 82 121 139 146 149 162 160 160 163 165 165 169 183 193 197 201 221 247 261 267 272 276 277 278 279 277 274
99 97 69 38 42 29 21 32 36 14 4 359 357 355 355 352 351 5 42 44 42 49 158 208 221 221 220 220 220 216 210 204 202 202 204 207 213 217 217 214 214 212 202 185 173 163 153 146 131 110 95 83 75 67 59 52 47 42 40 43 46 46 50 53 59 195 190 188 177 175 182 184 179 184 194 195 197 205 222 245 263 271 273 271 266 263 265
86 63 44 47 73 35 16 14 4 350 346 345 344 340 335 332 328 309 271 253 306 352 16 160 228 232 222 216 213 210 207 203 202 204 208 215 222 225 222 218 215 211 204 196 189 181 178 177 162 130 104 78 62 52 45 40 35 32 32 36 40 42 36 23 359 312 268 244 220 207 211 204 193 204 216 216 217 216 212 213 223 237 251 258 259 260 263
83 59 51 55 25 349 346 343 337 334 334 333 332 330 326 323 322 318 301 267 250 253 255 254 265 261 233 222 217 214 211 210 210 213 217 223 227 227 225 222 219 216 213 210 207 202 201 202 198 189 181 136 34 27 24 23 22 22 23 22 21 20 9 354 327 289 272 257 246 245 243 232 223 230 231 231 236 237 234 233 233 234 238 245 253 262 269
202 209 3 359 344 338 338 336 330 326 324 324 322 318 317 316 314 313 311 297 274 264 259 253 248 245 242 241 235 229 227 229 229 230 230 228 225 223 223 223 222 219 217 218 220 221 219 216 214 213 215 225 258 319 347 359 6 11 10 6 4 358 345 330 309 285 274 264 256 258 257 253 253 253 248 243 245 244 245 247 247 248 252 251 254 262 271
202 218 306 334 332 329 331 330 329 327 325 325 323 316 308 303 301 298 297 296 292 287 278 266 254 243 240 244 246 242 240 241 241 240 238 232 226 224 223 223 222 222 221 222 226 230 229 224 219 218 219 227 243 271 305 330 346 356 357 353 350 343 331 321 310 295 284 275 266 265 263 260 260 259 255 253 255 255 255 254 253 256 262 263 262 264 266
201 214 271 296 302 313 317 313 316 322 323 323 323 316 304 291 283 282 284 287 290 293 292 290 280 262 249 245 245 246 249 250 247 243 240 237 234 231 230 228 226 225 227 232 235 235 231 225 221 219 220 226 237 252 278 308 324 335 341 341 337 332 326 321 315 303 294 285 272 267 264 263 268 268 264 261 261 261 258 257 259 260 260 261 264 266 266
205 207 237 268 281 294 300 301 301 300 302 306 307 303 297 285 274 274 282 285 287 288 288 289 290 285 275 264 256 253 251 248 243 240 239 239 239 239 239 239 235 232 234 239 243 241 235 229 225 222 223 227 234 244 262 287 304 317 327 330 327 324 321 317 312 306 298 287 269 264 269 276 278 275 269 263 260 257 255 257 260 261 260 260 262 265 265
209 212 232 265 288 295 297 298 298 295 292 290 285 281 281 280 275 273 277 282 286 288 287 284 282 283 285 285 281 273 261 249 243 245 249 250 248 247 248 249 246 240 238 240 243 243 239 234 229 228 228 231 236 246 259 274 291 308 317 320 320 318 315 311 309 304 295 279 266 266 276 284 284 278 268 260 253 247 249 254 255 256 258 257 255 257 263
227 238 262 285 295 297 296 295 296 296 295 290 282 273 270 270 272 273 273 274 277 280 281 280 279 279 281 282 281 281 278 269 261 260 261 260 257 254 253 254 253 249 245 242 241 240 237 234 231 231 231 232 238 249 261 275 291 303 310 316 319 316 311 308 306 301 292 281 273 271 279 286 282 270 256 247 240 237 241 242 243 249 255 255 251 254 263
242 264 286 292 290 288 288 288 288 288 287 286 285 279 270 265 266 268 270 271 272 274 276 276 276 276 277 279 281 282 282 282 280 275 269 263 257 253 253 254 254 252 248 244 241 237 234 230 228 229 230 234 240 250 264 279 293 302 309 315 315 312 310 308 304 299 293 286 281 279 277 271 264 249 240 240 238 236 237 241 248 257 257 253 252 254 260
270 286 291 289 287 287 286 285 284 282 278 277 278 276 273 269 265 264 265 267 268 269 271 273 274 272 271 273 277 280 280 281 282 282 279 271 259 249 248 250 250 247 245 241 237 231 226 224 225 228 231 235 241 253 267 279 288 298 307 310 310 308 308 305 298 293 289 285 283 277 258 245 235 221 228 239 241 242 243 246 251 256 252 246 247 251 258
286 291 292 292 292 292 289 285 282 279 276 274 273 272 271 270 268 266 266 266 265 265 266 266 268 269 269 269 270 270 272 276 278 280 282 280 270 256 248 247 247 245 244 240 232 224 220 223 228 231 233 236 245 258 268 278 288 299 304 306 306 305 302 297 292 288 284 278 258 232 226 226 225 222 229 237 241 247 254 252 249 253 258 256 253 257 264
292 293 296 297 295 293 290 287 284 282 279 278 276 274 272 271 269 267 266 265 263 262 261 260 262 265 266 267 267 266 267 270 273 274 276 276 272 262 253 248 245 243 242 238 229 220 218 222 226 229 232 238 247 261 273 283 293 300 302 302 303 301 295 288 278 250 231 225 224 226 227 229 238 243 243 246 250 254 260 261 257 260 264 260 257 261 268
296 296 298 298 296 296 294 292 290 288 285 284 282 280 277 274 271 268 265 263 260 256 253 254 258 262 264 266 268 268 267 265 266 268 270 271 270 265 257 252 249 246 243 238 230 223 222 222 222 224 231 238 247 262 275 284 292 298 302 302 302 297 278 241 219 227 232 229 233 242 247 252 256 256 257 261 263 261 261 258 255 257 256 250 249 258 267
300 303 305 305 305 305 304 300 296 292 287 284 283 282 280 278 274 270 266 263 259 255 253 253 255 257 261 265 268 269 267 263 259 259 261 264 266 262 254 250 247 242 236 231 226 222 222 221 219 221 228 237 248 260 270 280 290 298 301 299 294 279 231 205 203 217 231 241 249 258 257 256 257 260 258 254 251 247 245 247 250 253 254 253 254 259 263
310 312 311 309 307 308 308 306 303 298 292 288 285 284 282 279 275 271 268 265 260 256 253 252 253 255 258 262 265 265 262 255 251 252 255 258 260 257 248 243 242 234 223 217 215 215 215 215 216 223 231 239 248 258 267 277 286 289 286 279 273 243 200 195 195 198 209 218 249 293 281 265 242 236 232 233 244 252 256 257 259 260 264 267 273 276 274
318 315 310 307 307 310 312 313 311 307 304 300 295 290 285 280 276 273 271 268 263 258 254 251 251 252 254 257 259 259 254 249 248 251 252 254 257 255 246 241 238 227 214 208 206 207 209 212 218 226 234 240 249 259 266 269 266 255 228 202 178 144 140 153 162 154 111 83 63 32 2 158 131 57 320 280 274 271 275 288 294 290 287 291 297 302 302
321 318 314 313 314 315 317 319 319 316 313 311 304 296 290 284 280 279 277 273 269 262 256 253 251 250 250 251 252 250 248 248 251 253 254 256 256 251 244 243 235 218 207 204 203 203 207 214 221 226 230 236 244 249 241 222 199 167 138 128 122 115 106 103 98 81 68 59 44 33 47 95 98 35 23 357 321 311 307 324 325 321 319 321 322 321 321
328 325 321 320 323 323 322 322 321 318 315 312 307 300 295 290 287 285 283 281 277 269 260 255 252 248 246 244 243 243 246 250 254 258 260 258 250 239 233 233 224 211 204 203 203 203 207 214 219 219 218 220 218 210 192 168 144 129 121 117 112 106 98 90 81 72 65 58 48 42 43 42 34 28 41 313 324 336 339 339 339 334 331 331 332 328 323
337 333 327 326 330 330 326 323 320 317 314 310 305 301 298 294 291 289 286 282 278 272 265 259 253 247 242 241 242 245 248 252 259 262 261 255 248 239 227 218 212 205 199 196 196 199 202 205 205 201 198 196 190 176 156 140 130 123 117 110 104 100 94 84 74 69 63 56 49 44 41 34 27 23 19 14 9 8 1 354 349 342 336 334 330 325 323
349 343 335 333 335 333 329 324 320 315 312 307 302 298 295 294 293 294 292 286 278 271 265 258 252 248 244 243 245 246 246 249 256 258 254 251 250 240 219 205 202 200 195 191 192 194 193 189 185 185 182 177 167 151 139 134 129 121 114 109 102 100 97 86 75 68 58 48 43 40 34 29 24 21 18 14 11 11 8 5 2 355 349 344 336 328 326
11 7 357 351 346 336 328 325 323 319 314 308 303 300 300 300 297 292 289 286 280 271 262 255 250 246 242 240 241 244 248 251 252 245 238 240 240 224 202 192 190 189 189 192 195 193 187 181 177 175 170 161 151 144 143 144 140 128 121 115 102 91 84 70 55 47 39 34 32 29 26 22 19 16 11 6 2 2 4 3 2 1 1 358 351 342 336
31 28 22 18 11 358 343 333 331 331 325 314 310 311 314 314 310 301 292 288 283 268 252 245 242 238 236 238 239 241 248 256 250 233 218 213 210 196 183 177 172 169 172 177 178 175 175 173 167 160 155 151 149 150 151 148 142 135 129 111 69 32 8 354 346 342 341 343 350 360 5 6 7 4 360 354 347 345 349 351 352 355 358 358 354 347 343
37 31 25 21 17 11 4 355 344 342 340 335 332 335 335 330 324 320 309 292 277 258 242 239 238 235 238 243 241 236 242 257 248 216 186 174 172 169 165 162 161 163 169 171 167 165 166 165 158 153 151 152 152 154 154 151 149 149 143 106 1 348 345 340 334 328 324 323 323 326 331 337 344 348 346 342 339 339 341 343 344 345 347 350 349 346 345
40 31 24 20 16 12 9 8 0 355 359 3 3 2 2 4 10 24 34 20 318 211 183 198 216 217 217 220 213 192 164 158 165 158 149 145 147 150 152 155 158 163 170 172 169 166 165 163 160 157 156 157 159 161 163 163 165 169 175 232 301 318 329 333 332 329 326 321 319 317 316 318 324 330 331 330 329 327 327 329 331 333 335 339 342 343 344
41 35 28 23 17 12 12 16 20 14 19 30 34 25 23 35 54 55 49 55 83 105 111 110 107 109 119 130 136 136 136 141 148 149 147 145 146 148 152 156 158 157 159 164 167 167 165 164 165 166 167 170 176 184 186 185 189 205 254 288 296 302 307 312 317 320 318 316 316 314 309 306 308 313 317 317 316 313 312 316 320 322 324 327 330 332 336
34 41 35 27 19 15 17 25 39 42 45 53 54 45 43 57 75 79 80 89 101 106 108 107 107 108 113 120 128 135 141 146 150 151 152 152 153 155 160 164 163 159 157 162 167 169 169 171 176 180 184 188 197 206 209 210 215 235 270 285 289 293 297 300 303 303 301 300 304 306 303 300 300 302 304 305 307 308 309 310 313 316 320 321 321 322 325